Showing default

IRIDIUM 160, 43569

Orbit data source: Space-Track

IRIDIUM 160, 43569 is a payload satellite owned by Iridium (US) in LEO that was launched on Wed, 25 Jul 2018 UTC via an FALCON 9 launch vehicle from the Air Force Western Test Range (AFWTR). Payloads include a variety of satellites, spacecraft, and rockets equipped with specific instruments for various scientific and technological missions. These include communications satellites like Starlink; space stations such as the ISS; scientific satellites like the Hubble; Earth observation satellites from companies like Planet Labs, Umbra, and HawkEye 360; GPS; miniature CubeSats for education and research; and military/defense satellites.

Loading next visibility...
IRIDIUM 160 details
Identifier
43569, 2018-061A
Orbit
LEO
Last TLE update15 hours ago
Origin
Flag of USIridium (US)
ManufacturerNGIS SSG Gilbert
MissionOperational Commercial Communications
Bus & MotorELITEBUS, Unknown motor
Mass860 kg wet, 700 kg dry
Launch date (UTC)
2018-07-25 (6 years ago)
Launch vehicle
FALCON 9
Launch site
Air Force Western Test Range (AFWTR)
Object type
Payload
Rocket body
Debris
Shape & HBRTrap Box + 2 Pan, 9.4 m
Radar Cross Section14.423 m², Large (>1 m²)

Expand to show TLE details & history

TLE from 15 hours ago
0 IRIDIUM 160
1 43569U 18061A   24361.28461093  .00000108  00000-0  31523-4 0  9999
2 43569  86.3965 281.5462 0002380  81.7298 278.4168 14.34218668336272
Epoch: 2024-12-26T06:49Z
Definitive object data (Epoch: 2024-12-26T06:49:50.384Z)
Latitude0.00002°
Longitude83.82006°
Altitude780.466 km
Speed7.464 km/s
True Right ascension18h 46m 11s
True Declination0° 00' 00"
Sunlit
Object was in daylight at TLE epoch
Visualization TLE readout
Latitude-76.23653°
Longitude-81.61679°
Altitude806.952 km
Speed7.448 km/s
Apparent Right ascension08h 31m 41s
Apparent Declination-59° 14' 15"
Sunlit
Object is in daylight
Visualization observer readout
Local Sidereal Time20:48:07
Azimuth173.696° S
Elevation-70.505°
Doppler factor1
Orbital elements
Apogee altitude776.331 km
Perigee altitude772.926 km
Semi-major axis7,152.766 km
Eccentricity0.000238
Inclination86.3965°
RAAN281.5462°
Arg. of periapsis81.7298°
True anomaly278.38982°
Mean anomaly278.4168°
Eccentric anomaly278.40331°
Mean motion3.58783 °/min
BSTAR0.000031523
Orbital period100.34 mins
Loading maneuver chart data...
Loading historical data...
Loading historical data...
Loading historical data...
Loading historical data...
Loading historical data...
Loading historical data...
Loading historical data...

IRIDIUM 160 Visibility forecast

Observer location: undefined°, undefined

Span
Click to sort rows by Start time (UTC) header in descending order
Start Az.
Max El. time (UTC)
Max El. Az.
Max El.
End time (UTC)
End Az.
9 mins2024-12-27 06:51:08.422Z4.448° NNE2024-12-27 06:55:08.422Z68.181° E42.792°2024-12-27 07:00:08.422Z169.28° S
5 mins2024-12-27 18:09:08.422Z104.403° ESE2024-12-27 18:11:08.422Z78.525° E15.485°2024-12-27 18:14:08.422Z42.626° NE
8 mins2024-12-27 19:48:08.422Z205.164° SW2024-12-27 19:51:08.422Z267.294° W39.213°2024-12-27 19:56:08.422Z352.622° N
|